| time (UTC) | temp F | wind direction | speed MPH | gust MPH | rain 1hr in | rain 24hr in | rain mn in | humidity % | barometer mb |
| 20260903014521 | 85 | 230 | 6.0 | 12.0 | 0.00 | 0.00 | 0.00 | 19 | 1001.4 |
| 20260903013019 | 86 | 194 | 10.0 | 20.0 | 0.00 | 0.00 | 0.00 | 19 | 1001.5 |
| 20260903011519 | 87 | 213 | 11.0 | 18.0 | 0.00 | 0.00 | 0.00 | 19 | 1001.6 |
| 20260903010018 | 87 | 216 | 14.0 | 23.0 | 0.00 | 0.00 | 0.00 | 19 | 1001.6 |
| 20260903004522 | 88 | 248 | 12.0 | 22.0 | 0.00 | 0.00 | 0.00 | 20 | 1001.6 |
| 20260903003020 | 88 | 261 | 10.0 | 20.0 | 0.00 | 0.00 | 0.00 | 20 | 1001.6 |
| 20260903001519 | 89 | 214 | 13.0 | 25.0 | 0.00 | 0.00 | 0.00 | 18 | 1001.8 |
| 20260903000014 | 89 | 216 | 12.0 | 23.0 | 0.00 | 0.00 | 0.00 | 19 | 1001.9 |
| 20260902234512 | 89 | 242 | 14.0 | 27.0 | 0.00 | 0.00 | 0.00 | 18 | 1001.8 |
| 20260902233011 | 89 | 190 | 11.0 | 22.0 | 0.00 | 0.00 | 0.00 | 19 | 1001.8 |
| 20260902231512 | 89 | 255 | 10.0 | 21.0 | 0.00 | 0.00 | 0.00 | 22 | 1002.2 |
| 20260902230007 | 89 | 223 | 9.0 | 23.0 | 0.00 | 0.00 | 0.00 | 25 | 1002.4 |
| 20260902224505 | 88 | 198 | 9.0 | 25.0 | 0.00 | 0.00 | 0.00 | 24 | 1002.5 |
| 20260902223003 | 88 | 210 | 10.0 | 21.0 | 0.00 | 0.00 | 0.00 | 26 | 1002.7 |
| 20260902221607 | 87 | 205 | 8.0 | 14.0 | 0.00 | 0.00 | 0.00 | 29 | 1002.7 |
| 20260902214604 | 87 | 239 | 11.0 | 20.0 | 0.00 | 0.00 | 0.00 | 29 | 1003.0 |
| 20260902213056 | 88 | 245 | 8.0 | 21.0 | 0.00 | 0.00 | 0.00 | 30 | 1003.0 |
| 20260902211610 | 87 | 244 | 4.0 | 18.0 | 0.00 | 0.00 | 0.00 | 30 | 1003.2 |
| 20260902210115 | 87 | 255 | 8.0 | 23.0 | 0.00 | 0.00 | 0.00 | 29 | 1003.4 |
| 20260902204605 | 87 | 198 | 7.0 | 15.0 | 0.00 | 0.00 | 0.00 | 30 | 1003.9 |
| 20260902203057 | 87 | 206 | 9.0 | 20.0 | 0.00 | 0.00 | 0.00 | 32 | 1004.1 |
| 20260902201522 | 88 | 271 | 8.0 | 13.0 | 0.00 | 0.00 | 0.00 | 30 | 1004.2 |
| 20260902200036 | 87 | 146 | 8.0 | 17.0 | 0.00 | 0.00 | 0.00 | 32 | 1004.6 |
| 20260902194534 | 86 | 232 | 7.0 | 13.0 | 0.00 | 0.00 | 0.00 | 36 | 1004.9 |
| 20260902193028 | 84 | 214 | 8.0 | 16.0 | 0.00 | 0.00 | 0.00 | 40 | 1005.1 |
| 20260902191526 | 84 | 168 | 12.0 | 20.0 | 0.00 | 0.00 | 0.00 | 39 | 1005.5 |
| 20260902190035 | 84 | 171 | 10.0 | 20.0 | 0.00 | 0.00 | 0.00 | 39 | 1005.8 |
| 20260902184525 | 83 | 200 | 7.0 | 14.0 | 0.00 | 0.00 | 0.00 | 42 | 1006.1 |
| 20260902183017 | 80 | 130 | 10.0 | 15.0 | 0.00 | 0.00 | 0.00 | 46 | 1006.6 |
| 20260902181515 | 81 | 107 | 5.0 | 14.0 | 0.00 | 0.00 | 0.00 | 47 | 1007.0 |
| 20260902180011 | 80 | 163 | 6.0 | 16.0 | 0.00 | 0.00 | 0.00 | 48 | 1007.2 |
| 20260902174508 | 78 | 148 | 3.0 | 10.0 | 0.00 | 0.00 | 0.00 | 51 | 1007.5 |
| 20260902173005 | 76 | 145 | 1.0 | 9.0 | 0.00 | 0.00 | 0.00 | 52 | 1007.8 |
| 20260902171504 | 76 | 147 | 3.0 | 8.0 | 0.00 | 0.00 | 0.00 | 51 | 1008.0 |
| 20260902170005 | 76 | 196 | 3.0 | 8.0 | 0.00 | 0.00 | 0.00 | 53 | 1008.1 |
| 20260902164600 | 76 | 186 | 3.0 | 10.0 | 0.00 | 0.00 | 0.00 | 55 | 1008.0 |
| 20260902163056 | 73 | 159 | 4.0 | 10.0 | 0.00 | 0.00 | 0.00 | 57 | 1008.4 |
| 20260902161554 | 70 | 78 | 0.0 | 0.0 | 0.00 | 0.00 | 0.00 | 63 | 1008.3 |
| 20260902160010 | 69 | 78 | 0.0 | 1.0 | 0.00 | 0.00 | 0.00 | 66 | 1008.1 |
| 20260902154525 | 68 | 78 | 0.0 | 2.0 | 0.00 | 0.00 | 0.00 | 63 | 1008.0 |
| 20260902153106 | 68 | 78 | 3.0 | 9.0 | 0.00 | 0.00 | 0.00 | 64 | 1008.0 |
| 20260902151503 | 67 | 42 | 0.0 | 2.0 | 0.00 | 0.00 | 0.00 | 65 | 1008.2 |
| 20260902150028 | 65 | 37 | 0.0 | 0.0 | 0.00 | 0.00 | 0.00 | 70 | 1008.2 |
| 20260902144531 | 64 | 42 | 3.0 | 5.0 | 0.00 | 0.00 | 0.00 | 72 | 1008.0 |
| 20260902143006 | 63 | 346 | 0.0 | 3.0 | 0.00 | 0.00 | 0.00 | 75 | 1008.2 |
| 20260902141512 | 63 | 346 | 0.0 | 6.0 | 0.00 | 0.00 | 0.00 | 77 | 1007.9 |
| 20260902140028 | 63 | 327 | 4.0 | 5.0 | 0.00 | 0.00 | 0.00 | 78 | 1007.7 |
| 20260902134512 | 63 | 32 | 2.0 | 4.0 | 0.00 | 0.00 | 0.00 | 77 | 1007.6 |
| 20260902133012 | 61 | 138 | 0.0 | 3.0 | 0.00 | 0.00 | 0.00 | 76 | 1007.6 |
| 20260902131556 | 61 | 117 | 2.0 | 4.0 | 0.00 | 0.00 | 0.00 | 83 | 1007.3 |
| 20260902130103 | 61 | 103 | 0.0 | 0.0 | 0.00 | 0.00 | 0.00 | 82 | 1007.3 |
| 20260902124552 | 62 | 103 | 0.0 | 0.0 | 0.00 | 0.00 | 0.00 | 82 | 1007.3 |
| 20260902123054 | 62 | 103 | 0.0 | 0.0 | 0.00 | 0.00 | 0.00 | 80 | 1007.4 |
| 20260902121550 | 63 | 103 | 0.0 | 0.0 | 0.00 | 0.00 | 0.00 | 76 | 1007.2 |
| 20260902120049 | 63 | 103 | 0.0 | 0.0 | 0.00 | 0.00 | 0.00 | 77 | 1007.0 |
| 20260902114550 | 63 | 127 | 0.0 | 1.0 | 0.00 | 0.00 | 0.00 | 73 | 1006.9 |
| 20260902113052 | 63 | 127 | 0.0 | 0.0 | 0.00 | 0.00 | 0.00 | 77 | 1007.0 |
| 20260902111547 | 63 | 127 | 0.0 | 0.0 | 0.00 | 0.00 | 0.00 | 79 | 1006.9 |
| 20260902110044 | 63 | 127 | 0.0 | 1.0 | 0.00 | 0.00 | 0.00 | 79 | 1006.9 |
| 20260902104544 | 64 | 127 | 0.0 | 0.0 | 0.00 | 0.00 | 0.00 | 78 | 1007.0 |
| 20260902103041 | 64 | 127 | 0.0 | 2.0 | 0.00 | 0.00 | 0.00 | 78 | 1007.0 |
| 20260902101539 | 65 | 132 | 0.0 | 0.0 | 0.00 | 0.00 | 0.00 | 76 | 1006.9 |
| 20260902100037 | 65 | 132 | 0.0 | 0.0 | 0.00 | 0.00 | 0.00 | 74 | 1007.0 |
| 20260902094536 | 65 | 132 | 0.0 | 1.0 | 0.00 | 0.00 | 0.00 | 73 | 1006.9 |
| 20260902093038 | 65 | 132 | 0.0 | 1.0 | 0.00 | 0.00 | 0.00 | 76 | 1007.0 |
| 20260902091538 | 66 | 132 | 0.0 | 0.0 | 0.00 | 0.00 | 0.00 | 76 | 1006.8 |
| 20260902090032 | 66 | 132 | 0.0 | 0.0 | 0.00 | 0.00 | 0.00 | 73 | 1007.0 |
| 20260902084532 | 66 | 132 | 0.0 | 0.0 | 0.00 | 0.00 | 0.00 | 73 | 1006.9 |
| 20260902083027 | 66 | 132 | 0.0 | 1.0 | 0.00 | 0.00 | 0.00 | 73 | 1007.1 |
| 20260902081525 | 67 | 132 | 0.0 | 1.0 | 0.00 | 0.00 | 0.00 | 72 | 1007.2 |
| 20260902080024 | 67 | 132 | 0.0 | 0.0 | 0.00 | 0.00 | 0.00 | 72 | 1007.2 |
| 20260902074520 | 68 | 132 | 0.0 | 1.0 | 0.00 | 0.00 | 0.00 | 71 | 1007.2 |
| 20260902073019 | 68 | 132 | 0.0 | 0.0 | 0.00 | 0.00 | 0.00 | 67 | 1007.2 |
| 20260902071519 | 69 | 132 | 0.0 | 0.0 | 0.00 | 0.00 | 0.00 | 68 | 1007.1 |
| 20260902070014 | 70 | 132 | 0.0 | 1.0 | 0.00 | 0.00 | 0.00 | 68 | 1007.3 |
| 20260902064510 | 71 | 128 | 0.0 | 1.0 | 0.00 | 0.00 | 0.00 | 62 | 1007.1 |
| 20260902063009 | 71 | 128 | 0.0 | 1.0 | 0.00 | 0.00 | 0.00 | 55 | 1007.0 |
| 20260902061514 | 71 | 128 | 0.0 | 2.0 | 0.00 | 0.00 | 0.00 | 54 | 1007.0 |
| 20260902060006 | 71 | 122 | 0.0 | 0.0 | 0.00 | 0.00 | 0.00 | 59 | 1007.1 |
| 20260902054504 | 71 | 122 | 0.0 | 1.0 | 0.00 | 0.00 | 0.00 | 59 | 1007.2 |
| 20260902053006 | 72 | 86 | 0.0 | 1.0 | 0.00 | 0.00 | 0.00 | 59 | 1007.1 |
| 20260902051504 | 72 | 86 | 0.0 | 1.0 | 0.00 | 0.00 | 0.00 | 55 | 1007.1 |
| 20260902050009 | 73 | 86 | 0.0 | 1.0 | 0.00 | 0.00 | 0.00 | 53 | 1007.0 |
| 20260902044503 | 73 | 86 | 0.0 | 0.0 | 0.00 | 0.00 | 0.00 | 54 | 1007.0 |
| 20260902043002 | 73 | 86 | 0.0 | 0.0 | 0.00 | 0.00 | 0.00 | 50 | 1007.0 |
| 20260902041502 | 74 | 86 | 0.0 | 0.0 | 0.00 | 0.00 | 0.00 | 50 | 1006.8 |
| 20260902040000 | 75 | 101 | 0.0 | 4.0 | 0.00 | 0.00 | 0.00 | 47 | 1006.8 |
| 20260902034603 | 76 | 189 | 0.0 | 1.0 | 0.00 | 0.00 | 0.00 | 46 | 1006.8 |
| 20260902033109 | 77 | 189 | 0.0 | 1.0 | 0.00 | 0.00 | 0.00 | 42 | 1006.7 |
| 20260902031537 | 78 | 189 | 0.0 | 1.0 | 0.00 | 0.00 | 0.00 | 40 | 1006.7 |
| 20260902030037 | 78 | 189 | 0.0 | 2.0 | 0.00 | 0.00 | 0.00 | 38 | 1006.6 |
| 20260902024543 | 79 | 202 | 5.0 | 9.0 | 0.00 | 0.00 | 0.00 | 37 | 1006.5 |
| 20260902023036 | 80 | 221 | 4.0 | 9.0 | 0.00 | 0.00 | 0.00 | 37 | 1006.4 |
| 20260902021535 | 80 | 200 | 4.0 | 8.0 | 0.00 | 0.00 | 0.00 | 35 | 1006.4 |
| 20260902020039 | 81 | 195 | 0.0 | 5.0 | 0.00 | 0.00 | 0.00 | 34 | 1006.4 |